CZ-3C DEB, 40835

Orbit data source: Space-Track

CZ-3C DEB, 40835 is space debris in HEO originally from a launch on Sun, 31 Oct 2010 UTC launched from the Xichang Space Center, China (XSC). Debris objects in space refer to the collection of defunct objects orbiting the Earth. Examples of debris include non-operational satellites, rocket bodies, and fragments generated from explosions, collisions, or faulty payload assembly.

Loading next visibility...
Identifier
40835, 2010-057BC
Orbit
HEO
Country
Flag of CNCN / PRC
Related business
Manufacturer
CALT
Mission
Spacecraft
Bus & Motor
Unknown
Mass
Unknown
Launch date (UTC)
2010-10-31 (16 years ago)
Launch vehicle
Unknown
Launch site
Xichang Space Center, China (XSC)
Object type
Payload
Rocket body
Debris
Shape & HBR
Unknown shape, 0.2 m
Radar Cross Section
Medium (>0.1 m² and <1 m²)

Expand to show TLE details & history
Last TLE update: 1 week ago

TLE from 1 week ago
0 CZ-3C DEB
1 40835U 10057BC  26258.91755224 -.00000035  00000-0  76262-3 0  9996
2 40835  20.1906  82.0200 7192326 195.9496 116.4206  2.20292827 14363
Epoch: 2026-09-15T22:01Z
TLE epoch observation values (Epoch: 2026-09-15T22:01:16.513Z)
Latitude
-0.00013°
Longitude
116.82084°
Altitude
32,649.612 km
Speed
2.11 km/s
True Right ascension
05h 28m 03s
True Declination
0° 00' 00"
Sunlit
Object was in daylight at epoch
Visualization orbit readout
Latitude
Unknown
Longitude
Unknown
Altitude
Unknown
Speed
Unknown
Apparent Right ascension
Unknown
Apparent Declination
Unknown
Sunlit
N/A
Visualization observer readout
Local Sidereal Time
04:07:36
Azimuth
Unknown
Elevation
Unknown
Doppler factor
Unknown
Orbital elements
Apogee altitude
36,523.951 km
Perigee altitude
628.191 km
Semi-major axis
24,954.208 km
Eccentricity
0.71923
Inclination
20.1906°
RAAN
82.02°
Arg. of periapsis
195.9496°
True anomaly
164.09743°
Mean anomaly
116.4206°
Eccentric anomaly
141.86681°
Mean motion
0.55059 °/min
Orbital period
653.85 mins
BSTAR
0.00076262
Loading maneuver chart data...
Computing Atmospheric mass density...
Loading historical data...
Loading historical data...
Loading historical data...
Loading historical data...
Loading historical data...
Loading historical data...
Loading historical data...

Documentation

Showing up to 5 results
|